| time (UTC) | temp C | wind direction | speed KPH | gust KPH | rain 1hr cm | rain 24hr cm | rain mn cm | humidity % | barometer mb |
| 20260508111529 | 8 | 295 | 0.0 | 3.2 | 0.00 | 0.00 | 0.00 | 62 | 1005.9 |
| 20260508110033 | 7 | 134 | 0.0 | 3.2 | 0.00 | 0.00 | 0.00 | 62 | 1005.8 |
| 20260508104526 | 7 | 130 | 0.0 | 3.2 | 0.00 | 0.00 | 0.00 | 65 | 1005.7 |
| 20260508103038 | 7 | 149 | 0.0 | 3.2 | 0.00 | 0.00 | 0.00 | 65 | 1005.6 |
| 20260508101523 | 6 | 240 | 0.0 | 9.7 | 0.00 | 0.00 | 0.00 | 68 | 1005.6 |
| 20260508100026 | 6 | 31 | 0.0 | 3.2 | 0.00 | 0.00 | 0.00 | 68 | 1005.3 |
| 20260508094521 | 5 | 320 | 0.0 | 3.2 | 0.00 | 0.00 | 0.00 | 68 | 1005.1 |
| 20260508093020 | 6 | 322 | 0.0 | 3.2 | 0.00 | 0.00 | 0.00 | 67 | 1004.8 |
| 20260508091517 | 6 | 233 | 0.0 | 3.2 | 0.00 | 0.00 | 0.00 | 67 | 1004.6 |
| 20260508090017 | 6 | 323 | 0.0 | 3.2 | 0.00 | 0.00 | 0.00 | 65 | 1004.5 |
| 20260508084515 | 6 | 342 | 0.0 | 3.2 | 0.00 | 0.00 | 0.00 | 69 | 1004.4 |
| 20260508083014 | 6 | 342 | 0.0 | 0.0 | 0.00 | 0.00 | 0.00 | 67 | 1004.3 |
| 20260508081514 | 6 | 342 | 0.0 | 3.2 | 0.00 | 0.00 | 0.00 | 69 | 1004.2 |
| 20260508080010 | 6 | 342 | 0.0 | 3.2 | 0.00 | 0.00 | 0.00 | 67 | 1004.2 |
| 20260508074509 | 6 | 342 | 0.0 | 3.2 | 0.00 | 0.00 | 0.00 | 64 | 1004.1 |
| 20260508073007 | 6 | 342 | 0.0 | 3.2 | 0.00 | 0.00 | 0.00 | 64 | 1004.0 |
| 20260508071505 | 7 | 346 | 0.0 | 8.0 | 0.00 | 0.00 | 0.00 | 60 | 1003.9 |
| 20260508070005 | 7 | 351 | 1.6 | 6.4 | 0.00 | 0.00 | 0.00 | 61 | 1003.9 |
| 20260508064501 | 7 | 42 | 3.2 | 9.7 | 0.00 | 0.00 | 0.00 | 57 | 1004.0 |
| 20260508063101 | 7 | 26 | 3.2 | 12.9 | 0.00 | 0.00 | 0.00 | 59 | 1003.9 |
| 20260508061605 | 7 | 11 | 9.7 | 16.1 | 0.00 | 0.00 | 0.00 | 57 | 1003.8 |
| 20260508060116 | 7 | 327 | 8.0 | 16.1 | 0.00 | 0.00 | 0.00 | 53 | 1004.0 |
| 20260508054638 | 7 | 336 | 4.8 | 16.1 | 0.00 | 0.03 | 0.00 | 54 | 1004.3 |
| 20260508053054 | 7 | 10 | 3.2 | 16.1 | 0.00 | 0.03 | 0.00 | 57 | 1004.3 |
| 20260508051550 | 7 | 360 | 4.8 | 14.5 | 0.00 | 0.03 | 0.00 | 60 | 1004.2 |
| 20260508050049 | 8 | 326 | 3.2 | 14.5 | 0.00 | 0.03 | 0.00 | 52 | 1004.5 |
| 20260508044546 | 8 | 360 | 3.2 | 14.5 | 0.00 | 0.23 | 0.00 | 51 | 1004.7 |
| 20260508043047 | 8 | 324 | 3.2 | 12.9 | 0.00 | 0.23 | 0.00 | 52 | 1004.7 |
| 20260508041544 | 8 | 325 | 1.6 | 9.7 | 0.00 | 0.23 | 0.00 | 53 | 1004.7 |
| 20260508040039 | 7 | 5 | 1.6 | 4.8 | 0.00 | 0.23 | 0.00 | 54 | 1004.8 |
| 20260508034546 | 8 | 9 | 1.6 | 9.7 | 0.00 | 0.23 | 0.23 | 53 | 1004.8 |
| 20260508033037 | 8 | 348 | 0.0 | 6.4 | 0.00 | 0.23 | 0.23 | 53 | 1004.7 |
| 20260508031536 | 8 | 345 | 3.2 | 9.7 | 0.00 | 0.23 | 0.23 | 50 | 1004.7 |
| 20260508030039 | 8 | 336 | 1.6 | 6.4 | 0.00 | 0.23 | 0.23 | 51 | 1004.8 |
| 20260508024542 | 9 | 5 | 0.0 | 8.0 | 0.00 | 0.23 | 0.23 | 51 | 1004.8 |
| 20260508023034 | 10 | 341 | 6.4 | 16.1 | 0.00 | 0.23 | 0.23 | 50 | 1004.5 |
| 20260508021534 | 10 | 355 | 4.8 | 14.5 | 0.00 | 0.23 | 0.23 | 51 | 1004.4 |
| 20260508020034 | 10 | 13 | 3.2 | 17.7 | 0.00 | 0.23 | 0.23 | 49 | 1004.2 |
| 20260508014537 | 10 | 342 | 8.0 | 19.3 | 0.00 | 0.25 | 0.23 | 48 | 1004.0 |
| 20260508013032 | 10 | 30 | 3.2 | 12.9 | 0.00 | 0.25 | 0.23 | 50 | 1003.8 |
| 20260508011534 | 10 | 34 | 3.2 | 8.0 | 0.00 | 0.25 | 0.23 | 51 | 1003.9 |
| 20260508010045 | 10 | 9 | 1.6 | 9.7 | 0.00 | 0.25 | 0.23 | 51 | 1003.8 |
| 20260508004532 | 11 | 26 | 3.2 | 14.5 | 0.00 | 0.33 | 0.23 | 50 | 1003.4 |
| 20260508003027 | 10 | 344 | 1.6 | 8.0 | 0.00 | 0.33 | 0.23 | 56 | 1003.0 |
| 20260508001524 | 9 | 360 | 0.0 | 3.2 | 0.00 | 0.33 | 0.23 | 76 | 1002.9 |
| 20260508000023 | 8 | 294 | 1.6 | 8.0 | 0.00 | 0.33 | 0.23 | 81 | 1002.7 |
| 20260507234523 | 8 | 251 | 1.6 | 6.4 | 0.00 | 0.43 | 0.23 | 85 | 1002.7 |
| 20260507233023 | 8 | 211 | 0.0 | 8.0 | 0.00 | 0.43 | 0.23 | 85 | 1002.6 |
| 20260507231523 | 8 | 230 | 11.3 | 14.5 | 0.00 | 0.43 | 0.23 | 85 | 1002.3 |
| 20260507230026 | 8 | 242 | 9.7 | 16.1 | 0.00 | 0.43 | 0.23 | 84 | 1002.1 |
| 20260507224522 | 8 | 240 | 16.1 | 22.5 | 0.00 | 0.71 | 0.23 | 83 | 1001.9 |
| 20260507223021 | 9 | 236 | 17.7 | 19.3 | 0.00 | 0.71 | 0.23 | 80 | 1001.7 |
| 20260507221520 | 9 | 245 | 17.7 | 24.1 | 0.00 | 0.71 | 0.23 | 81 | 1001.5 |
| 20260507220020 | 9 | 237 | 22.5 | 29.0 | 0.00 | 0.71 | 0.23 | 82 | 1001.5 |
| 20260507214521 | 9 | 237 | 22.5 | 30.6 | 0.00 | 0.97 | 0.23 | 81 | 1001.5 |
| 20260507213019 | 9 | 231 | 25.7 | 32.2 | 0.00 | 0.97 | 0.23 | 80 | 1001.5 |
| 20260507211532 | 9 | 235 | 27.4 | 33.8 | 0.00 | 0.97 | 0.23 | 81 | 1001.5 |
| 20260507210018 | 9 | 234 | 25.7 | 30.6 | 0.00 | 0.97 | 0.23 | 81 | 1001.3 |
| 20260507204522 | 9 | 236 | 24.1 | 32.2 | 0.00 | 1.02 | 0.23 | 81 | 1001.2 |
| 20260507203021 | 9 | 237 | 27.4 | 30.6 | 0.00 | 1.02 | 0.23 | 81 | 1001.1 |
| 20260507201516 | 9 | 238 | 25.7 | 32.2 | 0.00 | 1.02 | 0.23 | 82 | 1001.2 |
| 20260507200016 | 9 | 239 | 25.7 | 30.6 | 0.00 | 1.02 | 0.23 | 81 | 1001.3 |
| 20260507194515 | 9 | 239 | 22.5 | 27.4 | 0.00 | 1.07 | 0.23 | 81 | 1001.5 |
| 20260507193013 | 9 | 229 | 22.5 | 27.4 | 0.00 | 1.07 | 0.23 | 81 | 1001.6 |
| 20260507191513 | 9 | 225 | 20.9 | 27.4 | 0.00 | 1.07 | 0.23 | 81 | 1001.7 |
| 20260507190014 | 9 | 227 | 19.3 | 24.1 | 0.00 | 1.07 | 0.23 | 80 | 1001.7 |
| 20260507184514 | 9 | 229 | 19.3 | 25.7 | 0.00 | 1.07 | 0.23 | 79 | 1001.9 |
| 20260507183028 | 9 | 229 | 20.9 | 25.7 | 0.00 | 1.07 | 0.23 | 82 | 1002.1 |
| 20260507181511 | 9 | 240 | 20.9 | 27.4 | 0.00 | 1.07 | 0.23 | 82 | 1002.1 |
| 20260507180010 | 9 | 240 | 19.3 | 24.1 | 0.00 | 1.07 | 0.23 | 81 | 1002.2 |
| 20260507174515 | 9 | 245 | 19.3 | 25.7 | 0.00 | 1.07 | 0.23 | 82 | 1002.4 |
| 20260507173010 | 9 | 253 | 22.5 | 29.0 | 0.00 | 1.07 | 0.23 | 83 | 1002.5 |
| 20260507171509 | 8 | 244 | 22.5 | 27.4 | 0.00 | 1.07 | 0.23 | 86 | 1002.5 |
| 20260507170009 | 8 | 243 | 20.9 | 24.1 | 0.00 | 1.07 | 0.23 | 87 | 1002.4 |
| 20260507164508 | 8 | 234 | 22.5 | 27.4 | 0.00 | 1.07 | 0.23 | 86 | 1002.5 |
| 20260507163008 | 9 | 221 | 17.7 | 25.7 | 0.00 | 1.07 | 0.23 | 84 | 1002.6 |
| 20260507161508 | 9 | 244 | 24.1 | 27.4 | 0.00 | 1.07 | 0.23 | 82 | 1002.7 |
| 20260507160017 | 9 | 244 | 25.7 | 29.0 | 0.00 | 1.07 | 0.23 | 80 | 1002.9 |
| 20260507154507 | 8 | 240 | 22.5 | 25.7 | 0.00 | 1.07 | 0.23 | 82 | 1003.1 |
| 20260507153007 | 9 | 231 | 14.5 | 19.3 | 0.00 | 1.07 | 0.23 | 82 | 1003.2 |
| 20260507151505 | 8 | 238 | 14.5 | 17.7 | 0.00 | 1.07 | 0.23 | 84 | 1003.3 |
| 20260507150005 | 8 | 233 | 9.7 | 12.9 | 0.00 | 1.07 | 0.23 | 86 | 1003.3 |
| 20260507144501 | 8 | 226 | 6.4 | 11.3 | 0.00 | 1.07 | 0.23 | 87 | 1003.5 |
| 20260507143100 | 8 | 217 | 8.0 | 12.9 | 0.00 | 1.07 | 0.23 | 86 | 1003.5 |
| 20260507141559 | 8 | 230 | 11.3 | 14.5 | 0.00 | 1.07 | 0.23 | 87 | 1003.7 |
| 20260507140105 | 8 | 236 | 9.7 | 11.3 | 0.00 | 1.07 | 0.23 | 87 | 1003.9 |
| 20260507134551 | 8 | 223 | 8.0 | 9.7 | 0.00 | 1.07 | 0.23 | 82 | 1003.7 |
| 20260507133046 | 10 | 257 | 3.2 | 4.8 | 0.00 | 1.07 | 0.23 | 77 | 1003.8 |
| 20260507131542 | 10 | 264 | 3.2 | 4.8 | 0.00 | 1.07 | 0.23 | 78 | 1003.9 |
| 20260507130049 | 10 | 299 | 1.6 | 3.2 | 0.00 | 1.07 | 0.23 | 82 | 1004.1 |
| 20260507124547 | 10 | 346 | 0.0 | 3.2 | 0.00 | 1.07 | 0.23 | 87 | 1004.3 |
| 20260507123030 | 9 | 336 | 4.8 | 9.7 | 0.00 | 1.07 | 0.23 | 83 | 1004.0 |
| 20260507121524 | 8 | 326 | 4.8 | 8.0 | 0.00 | 1.07 | 0.23 | 85 | 1004.2 |
| 20260507120023 | 8 | 328 | 3.2 | 8.0 | 0.00 | 1.07 | 0.23 | 86 | 1003.9 |
| 20260507114519 | 8 | 325 | 1.6 | 4.8 | 0.00 | 1.07 | 0.23 | 90 | 1004.1 |
| 20260507113019 | 8 | 360 | 0.0 | 3.2 | 0.00 | 1.07 | 0.23 | 89 | 1004.0 |